TimeMDT,TemperatureF,Dew PointF,Humidity,Sea Level PressureIn,VisibilityMPH,Wind Direction,Wind SpeedMPH,Gust SpeedMPH,PrecipitationIn,Events,Conditions,WindDirDegrees,DateUTC
12:53 AM,46.9,45.0,93,30.17,10.0,North,4.6,-,N/A,,Clear,360,2013-09-20 06:53:00
1:53 AM,46.0,44.1,93,30.16,10.0,North,4.6,-,N/A,,Clear,360,2013-09-20 07:53:00
2:53 AM,46.9,44.1,90,30.15,10.0,Calm,Calm,-,N/A,,Clear,0,2013-09-20 08:53:00
3:53 AM,45.0,42.1,90,30.16,10.0,NNE,3.5,-,N/A,,Clear,30,2013-09-20 09:53:00
4:53 AM,45.0,41.0,86,30.15,9.0,Calm,Calm,-,N/A,,Clear,0,2013-09-20 10:53:00
5:53 AM,43.0,39.9,89,30.16,10.0,North,3.5,-,N/A,,Clear,10,2013-09-20 11:53:00
6:36 AM,42.8,39.2,87,30.18,1.2,Calm,Calm,-,N/A,,Clear,0,2013-09-20 12:36:00
6:44 AM,42.8,39.2,87,30.18,0.5,Calm,Calm,-,N/A,Fog,Fog,0,2013-09-20 12:44:00
6:49 AM,42.8,39.2,87,30.18,3.0,Calm,Calm,-,N/A,,Clear,0,2013-09-20 12:49:00
6:53 AM,43.0,39.9,89,30.18,10.0,Calm,Calm,-,N/A,,Clear,0,2013-09-20 12:53:00
7:53 AM,50.0,45.0,83,30.19,10.0,Calm,Calm,-,N/A,,Clear,0,2013-09-20 13:53:00
8:53 AM,54.0,45.0,72,30.18,10.0,Calm,Calm,-,N/A,,Clear,0,2013-09-20 14:53:00
9:53 AM,59.0,46.9,64,30.18,10.0,SSE,3.5,-,N/A,,Clear,150,2013-09-20 15:53:00
10:53 AM,66.0,46.9,50,30.14,10.0,SSW,9.2,-,N/A,,Clear,200,2013-09-20 16:53:00
11:53 AM,70.0,48.0,46,30.11,10.0,South,8.1,-,N/A,,Clear,170,2013-09-20 17:53:00
12:53 PM,73.0,44.1,35,30.07,10.0,West,4.6,-,N/A,,Clear,270,2013-09-20 18:53:00
1:53 PM,73.9,42.1,32,30.04,10.0,SSW,5.8,-,N/A,,Partly Cloudy,210,2013-09-20 19:53:00
2:53 PM,78.1,42.1,28,30.01,10.0,WSW,5.8,-,N/A,,Scattered Clouds,250,2013-09-20 20:53:00
3:53 PM,75.9,43.0,31,30.01,10.0,Variable,3.5,-,N/A,,Partly Cloudy,0,2013-09-20 21:53:00
4:53 PM,75.9,42.1,30,29.99,10.0,SSE,3.5,-,N/A,,Partly Cloudy,160,2013-09-20 22:53:00
5:53 PM,75.0,43.0,32,29.99,10.0,South,6.9,-,N/A,,Clear,180,2013-09-20 23:53:00
6:53 PM,64.9,46.9,52,30.01,10.0,SSE,5.8,-,N/A,,Clear,160,2013-09-21 00:53:00
7:53 PM,59.0,46.0,62,30.00,10.0,SSE,5.8,-,N/A,,Clear,150,2013-09-21 01:53:00
8:53 PM,61.0,45.0,56,30.00,10.0,SSE,8.1,-,N/A,,Clear,160,2013-09-21 02:53:00
9:53 PM,61.0,44.1,54,30.00,10.0,South,8.1,-,N/A,,Clear,180,2013-09-21 03:53:00
10:53 PM,57.9,45.0,62,29.99,10.0,SSW,5.8,-,N/A,,Clear,210,2013-09-21 04:53:00
11:53 PM,55.0,45.0,69,29.98,10.0,SSW,5.8,-,N/A,,Clear,210,2013-09-21 05:53:00